Location: Recife
(8.0585°S, 34.8848°W)
Time: 10:13:29
(UTC-03:00)

S-56A Canister/Altair - Pass Details

Date: 21 April 2026
Orbit: 633 x 2484 km, 38.9° (Epoch: 20 May)

Event Time Altitude Azimuth Distance (km) Brightness Sun altitude
Rises 11:39:10 0° 312° (NW) 6,102 12.4 69.3°
Reaches altitude 10° 11:43:20 10° 313° (NW) 4,999 12.1 69.0°
Maximum altitude 11:57:24 88° 41° (NE) 1,936 11.2 67.7°
Drops below altitude 10° 12:07:10 10° 130° (SE) 3,601 10.8 66.5°
Sets 12:09:42 0° 130° (SE) 4,362 11.2 66.2°
